Regional Weather Roundup
Issued by NWS

Home | Current Version | Previous Version | Graphics & Text | Print | Product List | Glossary On
Versions: 1 2 3 4 5 6 7 8 9 10 11 12 13 14 15 16 17 18 19 20 21 22 23 24 25 26 27 28 29 30 31 32 33 34 35 36 37 38 39 40 41 42 43 44 45 46 47 48 49
000
ASUS43 KDMX 192107
RWRIA

WEATHER ROUNDUP FOR IOWA
NATIONAL WEATHER SERVICE DES MOINES IA
400 PM CDT FRI SEP 19 2014

NOTE: "FAIR" INDICATES FEW OR NO CLOUDS BELOW 12,000 FEET WITH NO
SIGNIFICANT WEATHER AND/OR OBSTRUCTIONS TO VISIBILITY.

* - THESE STATIONS ARE NOT NWS STATIONS...THUS NOT UNDER NWS
QUALITY CONTROL.  THEY ALSO DO NOT REPORT WEATHER SUCH
AS PRECIPITATION OR FOG.

IAZ001>003-012>014-020>022-031>034-043>046-192200-
   NORTHWEST IOWA

CITY           SKY/WX    TMP DP  RH WIND       PRES   REMARKS
CARROLL *      SUNNY     81  66  61 S17G28    29.81F HX  83
CHEROKEE *     SUNNY     84  68  58 SW21      29.74S HX  87
DENISON *      SUNNY     79  68  69 S16G29    29.78F HX  81
LE MARS *      SUNNY     88  66  48 SW22G33   29.72S HX  90
ORANGE CITY *  SUNNY     88  63  42 SW24G32   29.72S HX  88
SHELDON *      SUNNY     84  68  58 S16G30    29.70S HX  87
SIOUX CITY     SUNNY     89  65  44 S14G25    29.73F HX  91
SPENCER        MOSUNNY   85  64  49 SW23G32   29.72S HX  86
STORM LAKE *   SUNNY     82  70  65 SW23G30   29.76F HX  86
$$

IAZ055>058-069>071-079>083-090>094-192200-
   SOUTHWEST IOWA

CITY           SKY/WX    TMP DP  RH WIND       PRES   REMARKS
ATLANTIC *     SUNNY     79  68  69 S16G23    29.84F HX  81
AUDUBON *      SUNNY     79  66  65 S18G25    29.85F HX  81
CLARINDA *     MOSUNNY   79  68  69 S10G21    29.90F HX  81
COUNCIL BLFS * SUNNY     82  72  69 S14G24    29.82F HX  87
CRESTON *      SUNNY     73  66  78 S18G25    29.90F
HARLAN  *      SUNNY     81  68  65 S15G24    29.86F HX  83
LAMONI         SUNNY     76  66  71 S13G24    29.93F
RED OAK *      SUNNY     81  68  65 S21       29.86F HX  83
SHENANDOAH *   SUNNY     82  70  65 S18       29.87F HX  86
$$

IAZ047>049-059>061-072>074-084-192200-
   CENTRAL IOWA

CITY           SKY/WX    TMP DP  RH WIND       PRES   REMARKS
AMES           MOSUNNY   78  65  63 S15G30    29.84F HX  80
ANKENY *       SUNNY     79  66  65 S18G26    29.87F HX  81
CHARITON *     SUNNY     77  64  65 S18G25    29.92F
DES MOINES     PTSUNNY   80  65  59 S22G28    29.87F HX  82
GRINNELL*      SUNNY     75  61  60 S17G26    29.91F
KNOXVILLE *    SUNNY     77  63  61 S15G22    29.90F
MARSHALLTOWN   SUNNY     78  62  57 S16G25    29.87F HX  80
PELLA *        SUNNY     77  63  61 S15G23    29.92F
PERRY *          N/A     81  66  61 S20G26    29.84F HX  83
$$

IAZ004>006-015-016-023>025-035-036-192200-
   NORTH CENTRAL IOWA

CITY           SKY/WX    TMP DP  RH WIND       PRES   REMARKS
ALGONA *       SUNNY     84  64  51 S24G38    29.74F HX  86
CLARION *        N/A     82  66  57 S22G30    29.79F HX  85
ESTHERVILLE    MOSUNNY   83  64  52 S25G35    29.69F HX  84
FORT DODGE *   SUNNY     81  66  61 SW17G28   29.80F HX  83
MASON CITY     SUNNY     80  64  58 S23G35    29.78F HX  82
FOREST CITY *  SUNNY     81  64  57 S23G30    29.75F HX  82
IOWA FALLS *     N/A     79  63  57 S23G29    29.84F HX  80
$$

IAZ007>011-017>019-026>030-037>042-050>054-066-192200-
   NORTHEAST IOWA

CITY           SKY/WX    TMP DP  RH WIND       PRES   REMARKS
CEDAR RAPIDS   SUNNY     74  59  59 S17G26    29.93F
CHARLES CITY * SUNNY     77  61  57 S24G35    29.82F
CLINTON *      SUNNY     75  52  43 S17       30.00F
DECORAH *      SUNNY     73  59  60 S16G28    29.84F
DUBUQUE        MOSUNNY   73  53  49 S24       29.95F
MONTICELLO *   SUNNY     75  55  50 S17G24    29.94F
OELWEIN *      SUNNY     75  59  57 S24G33    29.89F
WATERLOO       MOSUNNY   75  59  57 S21G35    29.85F
$$

IAZ064-065-067-068-078-192200-
   EAST CENTRAL IOWA

CITY           SKY/WX    TMP DP  RH WIND       PRES   REMARKS
DAVENPORT      SUNNY     75  51  43 S20       29.98F
IOWA CITY      SUNNY     76  59  55 S17       29.96F
MT. PLEASANT * SUNNY     79  54  41 S14       29.98F
MUSCATINE *    SUNNY     77  54  44 S14G22    29.97F
QUAD CITIES    SUNNY     76  52  43 S10G21    29.97F
$$

IAZ062-063-075>077-085>089-095>099-192200-
   SOUTHEAST IOWA

CITY           SKY/WX    TMP DP  RH WIND       PRES   REMARKS
BURLINGTON     SUNNY     76  57  51 S13       29.99F
FAIRFIELD *    SUNNY     75  59  57 S17G23    29.97F
FORT MADISON * SUNNY     79  55  44 S8        30.00F
KEOKUK *       SUNNY     77  55  47 S12G21    29.99F
OSKALOOSA *      N/A     75  61  60 S17G24    29.94F
CENTERVILLE *  SUNNY     75  63  64 S13       29.97F
OTTUMWA        SUNNY     76  59  55 S17G24    29.94F
WASHINGTON *   SUNNY     77  57  50 S17       29.96F
$$

ABBREVIATIONS USED IN REMARKS
   TC - TEMPERATURES IN CELSIUS
  WCI - WIND CHILL INDEX
   HX - HEAT INDEX
  VSB - VISIBILITY
$$



USA.gov is the U.S. government's official web portal to all federal, state and local government web resources and services.